Torna al catalogo

COSMOS 249 DEB

AttivoLEO
NORAD 3583·DEBRIS·🇷🇺 Russia

Lanciato Oct 20, 1968 da Baikonur Cosmodrome

Loading…

Prossimi Passaggi (prossime 24 ore)

TLE

AggiornatoSource: Space-Track

Epoca: Sep 13, 2026, 11:12 UTC

1 03583U 68091R   26256.46719607  .00000147  00000-0  32356-3 0  9998
2 03583  62.0820 306.6610 0696371 166.4727 195.6033 12.85998607695570

Traccia COSMOS 249 DEB in tempo reale con AllMySat

Download on the App Store